{"data":{"norad_id":56075,"epoch":"2026-09-20T05:17:36.536064Z","epoch_age_seconds":42339,"freshness":"FRESH","line1":"1 56075U 23043AF  26263.22056176  .00000118  00000+0  27874-3 0  9993","line2":"2 56075  87.8984 240.2786 0001778  90.0434 270.0900 13.15547799168892","mean_motion":13.15547799,"eccentricity":0.0001778,"inclination_deg":87.8984,"raan_deg":240.2786,"arg_perigee_deg":90.0434,"mean_anomaly_deg":270.09,"bstar":0.00027874,"rev_number":16889,"period_min":109.46010483957,"perigee_km":1200.4259440826,"apogee_km":1203.1213603105,"semimajor_km":7579.9106521965,"source":"CELESTRAK","updated_at":"2026-09-20T09:00:44.792638Z"}}